205P/Giacobini (2022)

Japanese version
Home page
Updated on June 13, 2021

---------------------------------------------------------------------

* Profile

* Orbital Elements

Epoch 2022 Jan. 21.0 TT = JDT 2459600.5
T 2022 Jan. 13.41300 TT                                 MPCW
q   1.5301021            (2000.0)            P               Q
n   0.14776498     Peri.  154.20336     +0.89741216     +0.44118937
a   3.5434124      Node   179.60271     -0.43651860     +0.88849848
e   0.5681840      Incl.   15.30503     -0.06405403     +0.12618398
P   6.67
From 1339 observations 2008 Sept. 10-2016 Jan. 12, mean residual 0".7.
     Nongravitational parameters A1 = -0.27, A2 = -0.2231.

* Magnitudes Graph

        m1 = 10.5 + 5 log d + 30 log r

---------------------------------------------------------------------

The orbital elements are published on M.P.E.C. 2016-D32.
The magnitudes graphs are made with Comet for Windows.

---------------------------------------------------------------------

Copyright(C) Seiichi Yoshida (comet@aerith.net). All rights reserved.